Flag Weather past 2 weeks in Fukushima, Japan

Now
40 °F

Quite cool.


Feels Like: 40 °F
Forecast: 38 / 48 °F
Wind: 2 mph from Northwest

Location: Wakamatsu

Current Time: Nov 27, 2014 at 12:44:08 AM

Latest Report: Nov 27, 2014 at 12:00 AM


Visibility: 9 mi

Pressure: 30.06 "Hg

Humidity: 95%

Dew point: 39 °F

Location of FukushimaLocation

Historic Weather in Fukushima — Graph

°F

Fukushima temperature yesterday

Maximum temperature yesterday: 47 °F (at 12:00 AM)
Minimum temperature yesterday: 40 °F (at 8:00 PM)
Average temperature yesterday: 44 °F

Past Weeks' High & Low Weather Summary

 TemperatureHumidityPressure
High60 °F (Nov 22, 2:00 PM)98% (Nov 17, 4:00 AM)30.42 "Hg (Nov 17, 4:00 AM)
Low32 °F (Nov 24, 4:00 AM)45% (Nov 22, 2:00 PM)29.65 "Hg (Nov 13, 12:00 AM)
Average42 °F87%30.14 "Hg
* Reported Nov 11 11:00 PM — Nov 26 11:00 PM, Fukushima, Weather by CustomWeather, © 2014

Note: Actual official high and low records may vary slightly from our data, if they occured in-between our weather recording intervals... More about our weather records

Advertising

Fukushima weather history for previous 24 hours

 ConditionsComfort  
Time TempWeatherWind HumidityBarometerVisibility
11:00 PM
Nov 26
40 °FQuite cool.2 mph94%30.07 "Hg12 mi
10:00 PM40 °FLight rain. Overcast.1 mph94%30.07 "Hg12 mi
9:00 PM40 °FLight rain. Overcast.1 mph95%30.06 "Hg12 mi
8:00 PM40 °FLight rain. Overcast.2 mph95%30.06 "Hg12 mi
7:00 PM40 °FChilly.2 mph94%30.06 "Hg12 mi
6:00 PM41 °FLight rain. Overcast.3 mph90%30.07 "Hg12 mi
5:00 PM41 °FRain. Overcast.2 mph93%30.08 "Hg7 mi
4:00 PM43 °FLight rain. Cloudy.6 mph90%30.06 "Hg11 mi
3:00 PM44 °FLight rain. Cloudy.3 mph92%30.03 "Hg5 mi
2:00 PM45 °FLight rain. Cloudy.3 mph90%30.01 "Hg12 mi
1:00 PM46 °FCool.7 mph75%30.00 "Hg12 mi
11:00 AM45 °FLight rain. Cloudy.3 mph83%30.07 "Hg12 mi
10:00 AM45 °FLight rain. Cloudy.2 mph83%30.10 "Hg12 mi
9:00 AM43 °FLight rain. Cloudy.5 mph85%30.12 "Hg12 mi
8:00 AM44 °FLight rain. Cloudy.6 mph83%30.11 "Hg10 mi
7:00 AM44 °FLight rain. Cloudy.6 mph84%30.09 "Hg6 mi
6:00 AM45 °FLight rain. Overcast.5 mph81%30.08 "Hg11 mi
5:00 AM46 °FCool.7 mph72%30.07 "Hg12 mi
4:00 AM46 °FLight rain. Overcast.8 mph73%30.07 "Hg12 mi
3:00 AM46 °FLight rain. Overcast.10 mph73%30.07 "Hg12 mi
2:00 AM46 °FCool.12 mph72%30.07 "Hg12 mi
1:00 AM47 °FCool.10 mph74%30.06 "Hg12 mi
12:00 AM47 °FCool.10 mph74%30.06 "Hg12 mi
Weather by CustomWeather, © 2014

See weather overviewHow to use our weather pages